Regional Weather Roundup
Issued by NWS Midland/Odessa, TX

Skip options and go directly to product.
Home | Oldest Version | Previous Version | Current Version | All | Graphics & Text | Save Text | Print | Product List | Glossary On

Skip product version selection by date and time.   
845
ASUS44 KMAF 052010
RWRMAF
MIDLAND AREA WEATHER ROUNDUP
NATIONAL WEATHER SERVICE MIDLAND TX
200 PM CST MON DEC 05 2016

...IN SOUTHWEST TEXAS AND SOUTHEAST NEW MEXICO...

CITY           SKY/WX    TMP DP  RH WIND       PRES   REMARKS
ALPINE         SUNNY     59  32  35 W23       29.88F
ANDREWS        FAIR      58  35  41 SW12G17   29.74F
ARTESIA        SUNNY     57  39  51 SE10      29.72F
BIG SPRING       N/A     58  44  61 SW12      29.77F
CARLSBAD       SUNNY     57  37  47 SE12      29.72F
DRYDEN           N/A     57  47  69 SW20      29.78F
FORT STOCKTON  SUNNY     63  41  44 W9        29.78F
GUAD PASS      SUNNY     51  30  44 SW30G40   29.84F
HOBBS          SUNNY     57  30  35 SW15      29.74F
MARFA          SUNNY     56  30  37 W23G29    29.88F
MIDLAND AIRPK  SUNNY     58  42  55 SW10      29.75F
MIDLAND INTL   SUNNY     58  40  51 SW14      29.75F
ODESSA         SUNNY     58  39  49 SW17      29.76F
PECOS          SUNNY     63  35  35 W20G25    29.76F
PRESIDIO       FAIR      59  41  51 S8        29.88F
SEMINOLE       SUNNY     59  34  39 SW13G20   29.73F
SNYDER         MOSUNNY   55  38  51 S12       29.74F
WINK           SUNNY     60  36  40 W13       29.74F
$$
...OTHER STATIONS IN TEXAS...

CITY           SKY/WX    TMP DP  RH WIND       PRES   REMARKS
ABILENE        CLOUDY    47  45  93 SW15      29.77F
AMARILLO       SUNNY     63  29  27 S20       29.59F
AUSTIN         DRIZZLE   53  50  89 N6        29.78F FOG
BROWNSVILLE    MOSUNNY   63  54  72 NW14      29.84F
CORPUS CHRISTI CLOUDY    59  53  80 NW12      29.82F
DALLAS FTW     LGT RAIN  53  43  68 NE3       29.75F
DEL RIO        LGT RAIN  55  48  77 W9        29.82F
EL PASO        MOSUNNY   55  31  39 S10       29.86F
HOUSTON INT    DRZL/FOG  54  52  93 NW3       29.73F VSB 1
LUBBOCK        MOSUNNY   59  34  39 SW20        N/A
SAN ANGELO     LGT RAIN  48  45  89 SW9       29.80F
SAN ANTONIO    CLOUDY    53  49  86 VRB5      29.79F
WACO           CLOUDY    50  49  96 NW7       29.77F
WICHITA FALLS  NOT AVBL
$$
...OTHER LOCATIONS IN NEW MEXICO...

CITY           SKY/WX    TMP DP  RH WIND       PRES   REMARKS
ALAMAGORDO     NOT AVBL
ALBUQUERQUE    MOSUNNY   47  15  27 S3        29.83F
CANNON AFB     SUNNY     63  22  21 W25       29.63F
CLOVIS         SUNNY     63  27  25 W18G30    29.63F
HOLLOMAN AFB   SUNNY     55  26  33 S7        29.87F
ROSWELL        SUNNY     54  35  48 S7        29.70F
RUIDOSO        SUNNY     52  16  24 NW10G20   29.83F
SANTA FE       SUNNY     50  14  23 W14       29.78F
TRUTH OR CONSE SUNNY     54  20  26 S12       29.83F
TUCUMCARI      SUNNY     67  16  14 W22       29.58F
$$